Location: Driftpile
(55.3500°N, 115.7667°W)
Time: 01:45:57
(UTC+00:00)

N. Korean satellite - Pass Details

Date: 28 November 2021
Orbit: 446 x 492 km, 97.3° (Epoch: 17 January)

Event Time Altitude Azimuth Distance (km) Brightness Sun altitude
Rises 13:51:10 0° 8° (N) 2,501 10.1 -14.7°
Reaches altitude 10° 13:53:19 10° 1° (N) 1,613 9.0 -14.4°
Maximum altitude 13:56:32 37° 292° (WNW) 722 6.9 -14.0°
Drops below altitude 10° 13:59:41 10° 224° (SW) 1,583 8.9 -13.6°
Sets 14:01:47 0° 216° (SW) 2,446 10.0 -13.3°
